Terug naar catalogus

DELTA 1 DEB

ActiefLEO
NORAD 7040·DEBRIS·🇺🇸 United States

Gelanceerd Nov 6, 1973 vanaf Vandenberg Space Force Base

Loading…

Volgende Passages (komende 24 uur)

TLE

VersSource: Space-Track

Epoch: Sep 14, 2026, 13:42 UTC

1 07040U 73086AG  26257.57088641  .00000070  00000-0  48912-3 0  9990
2 07040 102.5337 119.1159 0193989 312.5187  75.9803 12.82497124468692

Volg DELTA 1 DEB in realtime met AllMySat

Download on the App Store